Regional Weather Roundup
Issued by NWS Jackson, KY

Home | Current Version | Previous Version | Graphics & Text | Print | Product List | Glossary On
Versions: 1 2 3 4 5 6 7 8 9 10 11 12 13 14 15 16 17 18 19 20 21 22 23 24 25 26 27 28
000
ASUS43 KJKL 262110
RWRJKL

EAST KENTUCKY HOURLY WEATHER ROUNDUP
NATIONAL WEATHER SERVICE JACKSON KY
500 PM EDT FRI MAY 26 2017

NOTE: "FAIR" INDICATES FEW OR NO CLOUDS BELOW 12,000 FEET WITH
NO SIGNIFICANT WEATHER AND/OR OBSTRUCTIONS TO VISIBILITY.

* THESE REPORTS ARE NOT UNDER NWS QUALITY CONTROL AND MAY NOT
  REPORT WEATHER SUCH AS PRECIPITATION AND FOG.

KYZ079-080-083-085-087-088-110-112-115-119-120-262200
...EASTERN KENTUCKY...

CITY           SKY/WX    TMP DP  RH WIND       PRES   REMARKS
JACKSON        SUNNY     76  57  51 VRB3      29.94S
LONDON         MOSUNNY   79  56  45 SW10      29.93F
SOMERSET*      MOSUNNY   77  59  53 W8        29.93R
MONTICELLO*    MOSUNNY   79  64  60 VRB5      29.93S
WILLIAMSBURG*  PTCLDY    79  59  50 SW7       29.93F
MIDDLESBORO*   MOSUNNY   78  58  49 S7        29.94F
HARLAN APT*    CLEAR     77  52  41 CALM      29.95S
PIKE CO APT*     N/A     73  54  50 CALM      29.94F
MOREHEAD APT*  PTCLDY    77  54  44 SW10G16   29.93S
$$

KYZ035-036-041-042-044-050-067-078-099-262200
...CENTRAL KENTUCKY...

CITY           SKY/WX    TMP DP  RH WIND       PRES   REMARKS
MT STERLING*   SUNNY     77  59  53 W10       29.92F
FLEMING/MASON* SUNNY     77  57  49 SW10      29.92R
DANVILLE*      MOSUNNY   79  61  53 SW7       29.92S
LEXINGTON      CLOUDY    76  59  55 S9        29.91S
FRANKFORT      CLOUDY    78  59  51 S8        29.88S
LOUISVILLE     MOSUNNY   81  64  56 S12       29.84F
LEBANON*         N/A     77  63  61 S13       29.89F
GLASGOW*       MOSUNNY   79  61  55 S5        29.87F
BOWLING GREEN  SUNNY     84  64  50 S14G23    29.84F
$$

KYZ091>093-OHZ055-061-077-WVZ005-015-034-035-042-262200
...SOUTHERN OHIO/WEST VIRGINIA...

CITY           SKY/WX    TMP DP  RH WIND       PRES   REMARKS
COVINGTON      MOSUNNY   78  57  48 SW12      29.87F
COLUMBUS       PTSUNNY   73  56  54 W12       29.87F
DAYTON         CLOUDY    74  56  53 S7        29.87F
WILMINGTON     MOSUNNY   76  58  53 W7        29.87F
HUNTINGTON     SUNNY     77  54  44 W10       29.89F
CHARLESTON     MOSUNNY   76  53  44 W10       29.89F
PINEVILLE*     SUNNY     75  51  42 MISG      30.00S
BECKLEY        MOSUNNY   70  50  49 W9        29.96F
BLUEFIELD      SUNNY     68  49  50 W8        29.99F
LOGAN CO APT*    N/A     73  54  49 VRB5G12   29.93F
$$

VAZ002-007-008-TNZ017-027-036-066-071-262200
...SOUTHWEST VIRGINIA/EAST TENNESSEE...

CITY           SKY/WX    TMP DP  RH WIND       PRES   REMARKS
WISE*          SUNNY     72  50  46 CALM      30.00F
JONESVILLE*      N/A     77  55  47 S9        29.98R
ABINGDON*      SUNNY     74  55  50 W12G17    29.99F
BRISTOL        MOSUNNY   75  54  47 S7        29.97F
MORRISTOWN*    CLEAR     77  57  50 SW12      29.96S
SEVIERVILLE*   CLEAR     79  55  44 W6        29.94F
LAFOLLETTE*    PTCLDY    77  61  57 S9G15     29.96F
OAK RIDGE      MOSUNNY   80  59  48 VRB6      29.96F
CROSSVILLE     SUNNY     76  60  57 S9G16     29.97F
NASHVILLE      MOSUNNY   87  56  34 SW16G22   29.87F
$$

...KEY TO REMARKS...
VSB - VISIBILITY IN MILES
WCI - WIND CHILL INDEX
HX  - HEAT INDEX

$$




USA.gov is the U.S. government's official web portal to all federal, state and local government web resources and services.